WetterOnline ( https://www.wetteronline.de )

Wetter aktuell Spremberg

Aktuelles Wetter: Hoyerswerda (116m)

6-stündlich | Neueste Meldungen
Ortszeit Temperatur Wetter
Sa, 20.04. 20:00 2.9° C wolkig
Sa, 20.04. 14:00 5.7° C bedeckt
Sa, 20.04. 8:00 5.2° C leichter Regen
Sa, 20.04. 2:00 5.2° C Sprühregen
Fr, 19.04. 20:00 7.0° C bewölkt
Fr, 19.04. 14:00 6.4° C leichter Regen
Fr, 19.04. 8:00 6.3° C wolkig
Fr, 19.04. 2:00 5.3° C leichter Regen
Ortszeit Temperatur Wetter
Sa, 20.04. 21:00 1.7° C bewölkt
Sa, 20.04. 20:40 1.7° C Dunst
Sa, 20.04. 20:30 2.1° C bewölkt
Sa, 20.04. 20:20 2.1° C bewölkt
Sa, 20.04. 20:10 2.5° C bewölkt
Sa, 20.04. 20:00 2.9° C wolkig
Sa, 20.04. 19:50 2.9° C wolkig
Sa, 20.04. 19:30 4.5° C wolkig
Sa, 20.04. 19:00 5.4° C bewölkt
Sa, 20.04. 18:30 4.7° C bewölkt
Sa, 20.04. 18:00 2.4° C Regen
Ortszeit Relative Feuchte Sichtweite
Sa, 20.04. 20:00 94% 40 km
Sa, 20.04. 14:00 72% 60 km
Sa, 20.04. 8:00 93% 20 km
Sa, 20.04. 2:00 95% 30 km
Fr, 19.04. 20:00 83% >70 km
Fr, 19.04. 14:00 87% 10 km
Fr, 19.04. 8:00 71% 55 km
Fr, 19.04. 2:00 76% 35 km
Ortszeit Relative Feuchte Sichtweite
Sa, 20.04. 21:00 100% 3.0 km
Sa, 20.04. 20:40 99% -
Sa, 20.04. 20:30 98% 9 km
Sa, 20.04. 20:20 98% -
Sa, 20.04. 20:10 97% -
Sa, 20.04. 20:00 94% 40 km
Sa, 20.04. 19:50 94% -
Sa, 20.04. 19:30 86% 60 km
Sa, 20.04. 19:00 80% 60 km
Sa, 20.04. 18:30 80% >70 km
Sa, 20.04. 18:00 90% 5.0 km
Ortszeit Niederschlagsmenge Niederschlagsart
Sa, 20.04. 20:00 5 l/m2 in 12 Std. Regen
Sa, 20.04. 14:00 4 l/m2 in 6 Std. Regen
Sa, 20.04. 8:00 3 l/m2 in 12 Std. Regen
Sa, 20.04. 2:00 2 l/m2 in 6 Std. Regen
Fr, 19.04. 20:00 4 l/m2 in 12 Std. Regen
Fr, 19.04. 14:00 0.9 l/m2 in 6 Std. Regen
Fr, 19.04. 8:00 0.1 l/m2 in 12 Std. Regen
Fr, 19.04. 2:00 0.1 l/m2 in 6 Std. Regen
Ortszeit Niederschlagsmenge Niederschlagsart
Sa, 20.04. 21:00 0.0 l/m2 in 1 Std. -
Sa, 20.04. 20:40 keine Meldung -
Sa, 20.04. 20:30 0.0 l/m2 in 30 Min -
Sa, 20.04. 20:20 keine Meldung -
Sa, 20.04. 20:10 keine Meldung -
Sa, 20.04. 20:00 0.0 l/m2 in 1 Std. Regen
Sa, 20.04. 19:50 keine Meldung -
Sa, 20.04. 19:30 0.0 l/m2 in 30 Min -
Sa, 20.04. 19:00 0.3 l/m2 in 1 Std. Regen
Sa, 20.04. 18:30 0.3 l/m2 in 30 Min Schneeregen
Sa, 20.04. 18:00 1.0 l/m2 in 1 Std. Regen, Niederschlag
Ortszeit Stärke Spitze Richtung
km/h Bft. km/h Grad Sektor
Sa, 20.04. 20:00 4 1 43 230° SW
Sa, 20.04. 14:00 18 3 47 350° N
Sa, 20.04. 8:00 17 3 28 330° NW
Sa, 20.04. 2:00 13 3 26 250° W
Fr, 19.04. 20:00 14 3 43 230° SW
Fr, 19.04. 14:00 22 4 50 250° W
Fr, 19.04. 8:00 14 3 25 240° SW
Fr, 19.04. 2:00 19 3 26 280° W
Ortszeit Stärke Spitze Richtung
km/h Bft. km/h Grad Sektor
Sa, 20.04. 21:00 2 1 4 120° SO
Sa, 20.04. 20:40 2 1 - 210° SW
Sa, 20.04. 20:30 2 1 4 150° SO
Sa, 20.04. 20:20 2 1 - 150° SO
Sa, 20.04. 20:10 0 0 - 80° O
Sa, 20.04. 20:00 4 1 4 230° SW
Sa, 20.04. 19:50 4 1 - 230° SW
Sa, 20.04. 19:30 0 0 4 - -
Sa, 20.04. 19:00 0 0 18 - -
Sa, 20.04. 18:30 0 0 18 - -
Sa, 20.04. 18:00 14 3 43 10° N
Ortszeit Untergrenze Bedeckung Gattung
total tief tief mittel hoch
Sa, 20.04. 20:00 2100 m 8/8 1/8 - - -
Sa, 20.04. 14:00 990 m 8/8 8/8 - - -
Sa, 20.04. 8:00 240 m 8/8 8/8 - - -
Sa, 20.04. 2:00 240 m 8/8 8/8 - - -
Fr, 19.04. 20:00 780 m 7/8 7/8 - - -
Fr, 19.04. 14:00 450 m 7/8 7/8 - - -
Fr, 19.04. 8:00 1320 m 8/8 2/8 - - -
Fr, 19.04. 2:00 1110 m 8/8 8/8 - - -
Ortszeit Bedeckungsgrad in Achtel und Wolkenuntergrenze
Sa, 20.04. 21:00 3(2100m) 6(2400m) 8(5100m)
Sa, 20.04. 20:40 8
Sa, 20.04. 20:30 7(4800m) 7(6300m)
Sa, 20.04. 20:20 7(4800m) 7(6300m)
Sa, 20.04. 20:10 7
Sa, 20.04. 20:00 1(2100m) 7(4800m) 8(7800m)
Sa, 20.04. 19:50 1(2100m) 7(4800m) 8(7800m)
Sa, 20.04. 19:30 1(1800m) 7(4800m)
Sa, 20.04. 19:00 3(2100m) 6(2400m) 7(4800m)
Sa, 20.04. 18:30 1(1290m) 6(1800m) 7(2400m)
Sa, 20.04. 18:00 4(450m) 8(5400m) 8(8100m)
Ortszeit Luftdruck NN (hPa) Tendenz (hPa in 3 Std.)
Sa, 20.04. 20:00 1019 + 1,1
Sa, 20.04. 14:00 1016 + 3,2
Sa, 20.04. 8:00 1008 + 2,9
Sa, 20.04. 2:00 1004 + 0,8
Fr, 19.04. 20:00 1002 - 0,9
Fr, 19.04. 14:00 1005 - 2,5
Fr, 19.04. 8:00 1010 - 2,1
Fr, 19.04. 2:00 1015 - 0,6
Ortszeit Luftdruck NN (hPa) Tendenz (hPa in 3 Std.)
Sa, 20.04. 21:00 1019 + 0,8
Sa, 20.04. 20:40 1019 keine Meldung
Sa, 20.04. 20:30 1019 + 1,0
Sa, 20.04. 20:20 1019 keine Meldung
Sa, 20.04. 20:10 1019 keine Meldung
Sa, 20.04. 20:00 1019 + 1,1
Sa, 20.04. 19:50 1019 keine Meldung
Sa, 20.04. 19:30 1018 + 0,8
Sa, 20.04. 19:00 1018 + 1,0
Sa, 20.04. 18:30 1018 + 1,1
Sa, 20.04. 18:00 1018 + 1,6
Ortszeit Schneehöhe (cm)
Sa, 20.04. 20:00 0
Sa, 20.04. 14:00 0
Sa, 20.04. 8:00 0
Sa, 20.04. 2:00 0
Fr, 19.04. 20:00 0
Fr, 19.04. 14:00 0
Fr, 19.04. 8:00 0
Fr, 19.04. 2:00 0
Ortszeit Schneehöhe (cm)
Sa, 20.04. 21:00 0
Sa, 20.04. 20:40 -
Sa, 20.04. 20:30 0
Sa, 20.04. 20:20 0
Sa, 20.04. 20:10 -
Sa, 20.04. 20:00 0
Sa, 20.04. 19:50 0
Sa, 20.04. 19:30 0
Sa, 20.04. 19:00 0
Sa, 20.04. 18:30 0
Sa, 20.04. 18:00 0
Link zu dieser Seite / Seite empfehlen

Das Wetter in ...